When you browse on this site, cookies collect data to enhance your experience and personalize the content and advertising you see.
Visit our Privacy Policy to learn more. By continuing to use the site, you agree to this use of cookies and data.
  • In Hungary
  • List of Countries
  • For 7 days
  • Water Temperature
  • Weather Map
  • News
  • Weather Widgets
  • user-avatar
    Login

    Hourly Weather La Democracia

    Today, 15 November, Friday

    Time Temperature Precipitation Wind Pressure Humidity
    00:00 +24°C° 0.2 mm 1 mps 741 mmHg 91%
    01:00 +24°C° 0 mm 2 mps 740 mmHg 90%
    02:00 +24°C° 0 mm 2 mps 740 mmHg 89%
    03:00 +24°C° 0 mm 2 mps 740 mmHg 88%
    04:00 +24°C° 0 mm 2 mps 740 mmHg 86%
    05:00 +24°C° 0 mm 1 mps 740 mmHg 85%
    06:00 +23°C° 0 mm 1 mps 740 mmHg 83%
    07:00 +25°C° 0 mm 1 mps 740 mmHg 78%
    08:00 +27°C° 0 mm 1 mps 741 mmHg 72%
    09:00 +27°C° 0 mm 0 mps 741 mmHg 67%
    10:00 +30°C° 0 mm 1 mps 741 mmHg 65%
    11:00 +31°C° 0 mm 1 mps 740 mmHg 64%
    12:00 +32°C° 0 mm 2 mps 740 mmHg 62%
    13:00 +32°C° 0.3 mm 2 mps 739 mmHg 65%
    14:00 +31°C° 0.3 mm 2 mps 739 mmHg 68%
    15:00 +31°C° 0.3 mm 2 mps 738 mmHg 71%
    16:00 +29°C° 0.6 mm 1 mps 738 mmHg 77%
    17:00 +28°C° 0.6 mm 1 mps 739 mmHg 84%
    18:00 +26°C° 0.6 mm 1 mps 739 mmHg 90%
    19:00 +26°C° 0 mm 1 mps 740 mmHg 90%
    20:00 +25°C° 0 mm 1 mps 740 mmHg 90%
    21:00 +25°C° 0 mm 2 mps 741 mmHg 90%
    22:00 +25°C° 0 mm 2 mps 741 mmHg 89%
    23:00 +24°C° 0 mm 2 mps 740 mmHg 88%

    Tomorrow, 16 November, Saturday

    Time Temperature Precipitation Wind Pressure Humidity
    00:00 +24°C° 0 mm 2 mps 740 mmHg 86%
    01:00 +24°C° 0 mm 2 mps 740 mmHg 84%
    02:00 +24°C° 0 mm 1 mps 739 mmHg 82%
    03:00 +25°C° 0 mm 1 mps 739 mmHg 80%
    04:00 +24°C° 0 mm 1 mps 739 mmHg 79%
    05:00 +24°C° 0 mm 1 mps 739 mmHg 79%
    06:00 +24°C° 0 mm 1 mps 739 mmHg 78%
    07:00 +26°C° 0 mm 1 mps 740 mmHg 74%
    08:00 +28°C° 0 mm 1 mps 740 mmHg 70%
    09:00 +29°C° 0 mm 1 mps 741 mmHg 66%
    10:00 +30°C° 0 mm 1 mps 740 mmHg 63%
    11:00 +31°C° 0 mm 1 mps 740 mmHg 61%
    12:00 +32°C° 0 mm 2 mps 739 mmHg 59%
    13:00 +32°C° 0.4 mm 2 mps 739 mmHg 64%
    14:00 +31°C° 0.4 mm 2 mps 738 mmHg 68%
    15:00 +31°C° 0.4 mm 1 mps 737 mmHg 73%
    16:00 +29°C° 1.3 mm 1 mps 738 mmHg 79%
    17:00 +28°C° 1.3 mm 1 mps 738 mmHg 84%
    18:00 +26°C° 1.3 mm 1 mps 738 mmHg 90%
    19:00 +25°C° 0.2 mm 1 mps 739 mmHg 89%
    20:00 +25°C° 0.2 mm 2 mps 739 mmHg 88%
    21:00 +24°C° 0.2 mm 2 mps 740 mmHg 88%
    22:00 +24°C° 0 mm 2 mps 739 mmHg 86%
    23:00 +24°C° 0 mm 2 mps 739 mmHg 84%

    Day after tomorrow, 17 November, Sunday

    Time Temperature Precipitation Wind Pressure Humidity
    00:00 +24°C° 0 mm 2 mps 739 mmHg 82%
    01:00 +23°C° 0 mm 2 mps 739 mmHg 80%
    02:00 +23°C° 0 mm 2 mps 738 mmHg 78%
    03:00 +23°C° 0 mm 2 mps 738 mmHg 76%
    04:00 +23°C° 0 mm 2 mps 738 mmHg 75%
    05:00 +23°C° 0 mm 2 mps 739 mmHg 74%
    06:00 +23°C° 0 mm 2 mps 739 mmHg 72%
    07:00 +25°C° 0 mm 1 mps 739 mmHg 69%
    08:00 +27°C° 0 mm 1 mps 739 mmHg 66%
    09:00 +29°C° 0 mm 1 mps 740 mmHg 62%
    10:00 +30°C° 0 mm 1 mps 739 mmHg 62%
    11:00 +31°C° 0 mm 1 mps 739 mmHg 61%
    12:00 +32°C° 0 mm 1 mps 738 mmHg 60%
    13:00 +31°C° 0.2 mm 1 mps 738 mmHg 64%
    14:00 +31°C° 0.2 mm 1 mps 737 mmHg 68%
    15:00 +30°C° 0.2 mm 1 mps 736 mmHg 72%
    16:00 +29°C° 0.7 mm 1 mps 737 mmHg 78%
    17:00 +27°C° 0.7 mm 1 mps 737 mmHg 85%
    18:00 +26°C° 0.7 mm 1 mps 737 mmHg 91%
    19:00 +26°C° 1.6 mm 1 mps 738 mmHg 92%
    20:00 +25°C° 1.6 mm 1 mps 738 mmHg 92%
    21:00 +25°C° 1.6 mm 1 mps 739 mmHg 92%
    22:00 +25°C° 1.4 mm 1 mps 739 mmHg 92%
    23:00 +24°C° 1.4 mm 1 mps 739 mmHg 92%

    18 November, Monday

    Time Temperature Precipitation Wind Pressure Humidity
    00:00 +24°C° 1.4 mm 1 mps 738 mmHg 92%
    01:00 +24°C° 0.5 mm 1 mps 738 mmHg 91%
    02:00 +24°C° 0.5 mm 1 mps 738 mmHg 91%
    03:00 +24°C° 0.5 mm 1 mps 737 mmHg 90%
    04:00 +24°C° 0 mm 1 mps 738 mmHg 89%
    05:00 +23°C° 0 mm 1 mps 738 mmHg 87%
    06:00 +23°C° 0 mm 1 mps 738 mmHg 86%
    07:00 +25°C° 0 mm 1 mps 739 mmHg 80%
    08:00 +27°C° 0 mm 1 mps 739 mmHg 75%
    09:00 +27°C° 0 mm 0 mps 739 mmHg 69%
    10:00 +30°C° 0 mm 1 mps 739 mmHg 68%
    11:00 +30°C° 0 mm 1 mps 738 mmHg 67%
    12:00 +31°C° 0 mm 2 mps 738 mmHg 66%
    13:00 +30°C° 0.8 mm 2 mps 737 mmHg 71%
    14:00 +30°C° 0.8 mm 1 mps 737 mmHg 77%
    15:00 +29°C° 0.8 mm 1 mps 736 mmHg 83%
    16:00 +28°C° 0.8 mm 1 mps 737 mmHg 85%
    17:00 +25°C° 0.8 mm 0 mps 737 mmHg 88%
    18:00 +24°C° 0.8 mm 0 mps 737 mmHg 91%
    19:00 +23°C° 0.1 mm 0 mps 738 mmHg 91%
    20:00 +25°C° 0.1 mm 1 mps 739 mmHg 91%
    21:00 +25°C° 0.1 mm 1 mps 739 mmHg 91%
    22:00 +25°C° 0.1 mm 1 mps 739 mmHg 91%
    23:00 +24°C° 0.1 mm 1 mps 739 mmHg 91%

    19 November, Tuesday

    Time Temperature Precipitation Wind Pressure Humidity
    00:00 +24°C° 0.1 mm 1 mps 739 mmHg 91%
    01:00 +24°C° 0 mm 1 mps 739 mmHg 90%
    02:00 +24°C° 0 mm 1 mps 738 mmHg 90%
    03:00 +23°C° 0 mm 1 mps 738 mmHg 89%
    04:00 +23°C° 0 mm 1 mps 738 mmHg 88%
    05:00 +23°C° 0 mm 1 mps 739 mmHg 87%
    06:00 +23°C° 0 mm 1 mps 739 mmHg 86%
    07:00 +25°C° 0 mm 1 mps 739 mmHg 81%
    08:00 +27°C° 0 mm 1 mps 740 mmHg 75%
    09:00 +27°C° 0 mm 0 mps 740 mmHg 70%
    10:00 +29°C° 0 mm 1 mps 740 mmHg 69%
    11:00 +30°C° 0 mm 1 mps 739 mmHg 68%
    12:00 +31°C° 0 mm 2 mps 739 mmHg 67%
    13:00 +30°C° 0.6 mm 2 mps 738 mmHg 71%
    14:00 +29°C° 0.6 mm 1 mps 738 mmHg 75%
    15:00 +29°C° 0.6 mm 1 mps 738 mmHg 79%
    16:00 +28°C° 0.7 mm 1 mps 738 mmHg 82%
    17:00 +25°C° 0.7 mm 0 mps 738 mmHg 86%
    18:00 +23°C° 0.7 mm 0 mps 739 mmHg 89%
    19:00 +25°C° 0.3 mm 1 mps 739 mmHg 89%
    20:00 +25°C° 0.3 mm 1 mps 740 mmHg 90%
    21:00 +24°C° 0.3 mm 1 mps 741 mmHg 90%
    22:00 +24°C° 0 mm 2 mps 740 mmHg 89%
    23:00 +23°C° 0 mm 2 mps 740 mmHg 88%

    20 November, Wednesday

    Time Temperature Precipitation Wind Pressure Humidity
    00:00 +23°C° 0 mm 2 mps 740 mmHg 87%
    01:00 +23°C° 0 mm 2 mps 740 mmHg 82%
    02:00 +23°C° 0 mm 2 mps 740 mmHg 78%
    03:00 +23°C° 0 mm 2 mps 739 mmHg 73%
    04:00 +21°C° 0 mm 2 mps 739 mmHg 70%
    05:00 +21°C° 0 mm 2 mps 740 mmHg 66%
    06:00 +21°C° 0 mm 2 mps 740 mmHg 63%
    07:00 +24°C° 0 mm 2 mps 740 mmHg 60%
    08:00 +26°C° 0 mm 1 mps 741 mmHg 58%
    09:00 +26°C° 0 mm 0 mps 741 mmHg 55%
    10:00 +29°C° 0 mm 1 mps 741 mmHg 54%
    11:00 +30°C° 0 mm 1 mps 740 mmHg 54%
    12:00 +31°C° 0 mm 1 mps 740 mmHg 53%
    13:00 +30°C° 0 mm 1 mps 739 mmHg 56%
    14:00 +30°C° 0 mm 1 mps 739 mmHg 60%
    15:00 +30°C° 0 mm 1 mps 738 mmHg 63%
    16:00 +28°C° 0.1 mm 1 mps 739 mmHg 69%
    17:00 +27°C° 0.1 mm 1 mps 739 mmHg 76%
    18:00 +23°C° 0.1 mm 0 mps 739 mmHg 82%
    19:00 +25°C° 0 mm 1 mps 740 mmHg 82%
    20:00 +24°C° 0 mm 1 mps 740 mmHg 82%
    21:00 +24°C° 0 mm 1 mps 741 mmHg 82%
    22:00 +24°C° 0 mm 2 mps 741 mmHg 81%
    23:00 +24°C° 0 mm 2 mps 741 mmHg 80%
    Show more